Probability
10 9 7 3 1 0 0 0 0 0 0 0 0 0 0 0 0 0 0 0 0 0 0 0 0 0 0 0 0 0 0 0 0 0 0 0 0 0 0 0 0 0 0
9 8 6 2 0 0 0 0 0 0 0 0 0 0 0 0 0 0 0 0 0 0 0 0 0 0 0 0 0 0 0 0 0 0 0 0 0 0 0 0 0 0 0
7 6 4 1 0 0 0 0 0 0 0 0 0 0 0 0 0 0 0 0 0 0 0 0 0 0 0 0 0 0 0 0 0 0 0 0 0 0 0 0 0 0 0
6 4 3 1 0 0 0 0 0 0 0 0 0 0 0 0 0 0 0 0 0 0 0 0 0 0 0 0 0 0 0 0 0 0 0 0 0 0 0 0 0 0 0
5 3 1 0 0 0 0 0 0 0 0 0 0 0 0 0 0 0 0 0 0 0 0 0 0 0 0 0 0 0 0 0 0 0 0 0 0 0 0 0 0 0 0
4 3 1 0 0 0 0 0 0 0 0 0 0 0 0 0 0 0 0 0 0 0 0 0 0 0 0 0 0 0 0 0 0 0 0 0 0 0 0 0 0 0 0
3 2 1 0 0 0 0 0 0 0 0 0 0 0 0 0 0 0 0 0 0 0 0 0 0 0 0 0 0 0 0 0 0 0 0 0 0 0 0 0 0 0 0
3 2 1 0 0 0 0 0 0 0 0 0 0 0 0 0 0 0 0 0 0 0 0 0 0 0 0 0 0 0 0 0 0 0 0 0 0 0 0 0 0 0 0
3 2 1 0 0 0 0 0 0 0 0 0 0 0 0 0 0 0 0 0 0 0 0 0 0 0 0 0 0 0 0 0 0 0 0 0 0 0 0 0 0 0 0
3 2 1 0 0 0 0 0 0 0 0 0 0 0 0 0 0 0 0 0 0 0 0 0 0 0 0 0 0 0 0 0 0 0 0 0 0 0 0 0 0 0 0
2 1 0 0 0 0 0 0 0 0 0 0 0 0 0 0 0 0 0 0 0 0 0 0 0 0 0 0 0 0 0 0 0 0 0 0 0 0 0 0 0 0 0
2 1 0 0 0 0 0 0 0 0 0 0 0 0 0 0 0 0 0 0 0 0 0 0 0 0 0 0 0 0 0 0 0 0 0 0 0 0 0 0 0 0 0
2 1 0 0 0 0 0 0 0 0 0 0 0 0 0 0 0 0 0 0 0 0 0 0 0 0 0 0 0 0 0 0 0 0 0 0 0 0 0 0 0 0 0
2 1 0 0 0 0 0 0 0 0 0 0 0 0 0 0 0 0 0 0 0 0 0 0 0 0 0 0 0 0 0 0 0 0 0 0 0 0 0 0 0 0 0
2 1 0 0 0 0 0 0 0 0 0 0 0 0 0 0 0 0 0 0 0 0 0 0 0 0 0 0 0 0 0 0 0 0 0 0 0 0 0 0 0 0 0
2 1 1 0 0 0 0 0 0 0 0 0 0 0 0 0 0 0 0 0 0 0 0 0 0 0 0 0 0 0 0 0 0 0 0 0 0 0 0 0 0 0 0
1 2 2 1 0 0 0 0 0 0 0 0 0 0 0 0 0 0 0 0 0 0 0 0 0 0 0 0 0 0 0 0 0 0 0 0 0 0 0 0 0 0 0
1 2 2 1 0 0 0 0 0 0 0 0 0 0 0 0 0 0 0 0 0 0 0 0 0 0 0 0 0 0 0 0 0 0 0 0 0 0 0 0 0 0 0
1 1 2 1 1 0 0 0 0 0 0 0 0 0 0 0 0 0 0 0 0 0 0 0 0 0 0 0 0 0 0 0 0 0 0 0 0 0 0 0 0 0 0
0 0 1 1 1 0 0 0 0 0 0 0 0 0 0 0 0 0 0 0 0 0 0 0 0 0 0 0 0 0 0 0 0 0 0 0 0 0 0 0 0 0 0
1 0 0 0 0 0 0 0 0 0 0 0 0 0 0 0 0 0 0 0 0 0 0 0 0 0 0 0 0 0 0 0 0 0 0 0 0 0 0 0 0 0 0
2 1 1 0 0 0 0 0 0 0 0 0 0 0 0 0 0 0 0 0 0 0 0 0 0 0 0 0 0 0 0 0 0 0 0 0 0 0 0 0 0 0 0
3 3 2 1 0 0 0 0 0 0 0 0 0 0 0 0 0 0 0 0 0 0 0 0 0 0 0 0 0 0 0 0 0 0 0 0 0 0 0 0 0 0 0
3 3 3 2 1 0 0 0 0 0 0 0 0 0 0 0 0 0 0 0 0 0 0 0 0 0 0 0 0 0 0 0 0 0 0 0 0 0 0 0 0 0 0
3 3 3 3 2 1 0 0 0 0 0 0 0 0 0 0 0 0 0 0 0 0 0 0 0 0 0 0 0 0 0 0 0 0 0 0 0 0 0 0 0 0 0
2 3 3 3 3 2 1 0 0 0 0 0 0 0 0 0 0 0 0 0 0 0 0 0 0 0 0 0 0 0 0 0 0 0 0 0 0 0 0 0 0 0 0
Wind_Speed
11 10 8 8 9 8 8 8 8 9 8 8 7 7 6 6 5 5 5 6 5 6 6 6 7 7 6 5 5 5 5 5 5 6 6 7 7 8 8 9 9 10 10
11 10 10 9 9 8 8 8 9 8 7 6 7 6 6 6 5 5 5 5 6 5 4 5 5 5 5 4 4 4 3 4 4 4 5 6 6 7 8 8 9 10 10
13 11 10 9 9 9 9 8 9 7 6 6 7 6 5 5 5 5 4 3 4 5 4 4 4 3 3 3 2 2 2 3 3 4 4 5 6 7 7 8 9 10 10
15 12 10 9 10 9 8 8 8 7 7 7 6 5 4 4 5 4 4 4 3 3 4 4 2 1 1 1 1 0 1 1 2 3 4 5 6 7 8 8 9 10 11
15 12 10 10 11 9 9 8 8 8 8 7 5 5 4 4 4 4 4 4 3 3 2 3 2 1 0 1 1 1 2 2 3 4 5 6 7 8 9 9 10 11 11
15 13 10 12 12 9 9 9 10 8 7 6 5 4 4 3 4 4 4 4 4 4 3 3 2 2 0 2 3 4 4 4 5 5 6 7 8 9 10 10 11 11 12
15 13 10 12 12 10 11 12 10 10 8 7 6 5 4 4 4 4 4 4 5 5 4 4 3 3 2 2 4 5 6 6 7 7 8 9 9 10 10 11 11 12 12
16 13 14 12 12 11 12 12 11 8 7 7 6 5 4 5 5 5 5 5 5 4 5 5 5 4 3 3 1 4 7 7 8 8 9 9 10 11 12 12 12 12 13
16 15 15 14 13 12 11 13 13 12 9 8 7 5 4 4 4 5 6 5 6 5 5 5 5 5 5 4 3 4 5 8 9 9 9 10 11 12 12 12 13 13 14
16 16 16 15 14 12 13 13 13 10 11 9 7 4 2 1 3 4 5 5 6 6 5 4 5 5 5 4 4 4 5 7 9 10 10 10 11 12 12 13 13 13 14
16 16 16 15 14 12 14 14 13 12 10 9 8 6 4 3 4 3 3 4 4 5 5 5 4 4 4 4 4 4 5 7 8 9 10 10 11 12 13 13 13 14 15
13 17 16 15 15 13 14 14 13 14 11 11 9 8 6 5 5 4 3 4 3 3 4 4 4 4 3 4 3 3 5 6 8 9 9 9 10 11 12 13 14 14 15
12 16 16 16 15 14 14 14 13 14 14 13 11 9 8 6 4 4 3 3 3 2 3 4 3 3 3 3 2 3 5 6 6 7 8 8 9 11 12 13 14 15 15
13 16 17 16 16 16 15 14 12 13 12 13 12 11 8 7 5 5 4 3 3 3 4 4 3 3 2 2 1 3 3 4 6 6 7 7 8 9 11 12 13 14 14
13 17 18 17 17 16 16 15 12 14 12 12 12 11 9 7 6 5 5 5 4 4 4 3 3 2 1 1 1 2 3 3 5 5 6 7 8 9 10 11 12 13 13
15 17 18 18 17 16 16 15 13 13 13 12 9 11 10 7 6 6 5 5 5 4 4 2 2 1 1 1 1 2 2 3 3 5 7 7 8 8 9 10 11 12 13
16 17 17 17 17 17 16 15 14 14 15 13 11 11 11 10 7 6 6 5 5 5 5 3 1 1 2 1 1 1 2 2 2 4 6 7 7 8 9 9 10 12 13
16 17 17 17 17 17 16 16 16 15 15 14 13 12 11 8 9 7 6 7 6 6 5 5 2 2 2 1 1 2 2 2 3 3 5 6 7 8 8 9 10 11 12
15 16 17 17 17 17 17 16 15 15 15 14 13 13 12 11 10 8 8 6 5 4 4 4 2 1 1 0 2 2 2 2 2 3 4 6 6 7 8 8 9 10 11
15 15 16 17 16 16 16 16 15 14 13 12 11 11 11 11 11 9 7 7 6 5 4 3 2 1 1 0 1 2 2 2 2 2 4 5 5 6 6 7 9 10 11
14 14 15 15 15 14 14 15 14 13 13 12 10 10 9 9 9 8 6 7 6 5 4 3 2 2 1 1 1 1 3 3 2 2 4 3 4 4 4 5 7 10 11
14 14 14 14 14 11 14 16 14 13 12 12 10 9 8 9 9 9 8 7 7 6 5 4 3 2 2 1 0 1 2 3 2 2 4 4 3 4 4 4 7 10 11
14 14 13 14 14 14 16 18 16 12 12 11 11 10 7 7 9 8 9 8 6 5 4 4 4 3 2 2 1 1 1 2 3 3 4 4 4 5 4 5 8 10 12
12 13 13 13 12 13 18 18 17 12 10 10 10 10 10 9 9 10 8 7 5 4 3 2 3 2 2 2 1 1 1 2 2 1 3 4 5 5 6 5 5 9 12
11 11 11 12 12 13 18 19 17 10 8 9 8 8 9 10 13 14 11 9 8 6 7 8 8 7 7 6 3 2 1 1 2 1 2 3 4 6 5 4 4 8 11
10 10 9 10 12 12 17 20 18 9 9 8 7 7 10 11 16 16 11 10 9 7 7 7 7 7 6 5 4 3 1 1 2 1 2 3 4 5 5 4 5 6 7
Wind_Direction
160 159 159 159 160 156 157 157 159 154 153 151 149 148 145 143 138 130 117 89 92 102 108 113 111 108 100 96 88 79 70 59 51 46 37 28 22 17 12 9 6 2 0
162 162 161 162 161 161 161 162 160 157 154 156 154 151 149 147 147 143 134 119 94 89 100 112 114 114 105 101 92 81 68 54 43 35 25 16 11 6 2 360 357 353 350
164 165 164 164 163 162 163 163 158 160 155 158 159 156 154 156 157 151 150 149 136 109 95 104 111 117 111 108 101 88 70 47 26 11 3 359 355 350 347 347 346 343 341
168 167 165 166 163 163 166 164 164 163 162 166 163 159 160 160 169 160 165 171 164 155 127 97 98 121 138 140 120 90 48 5 347 338 337 336 333 333 332 331 330 331 330
171 170 169 166 166 168 170 168 171 170 167 167 163 162 166 172 171 178 181 182 182 189 181 123 108 58 301 265 261 280 290 301 307 313 316 317 318 318 318 319 320 321 321
175 173 171 169 169 171 173 175 172 172 169 163 158 162 171 177 188 193 194 195 198 201 210 206 201 169 186 296 283 280 282 287 292 299 305 307 308 309 311 312 314 316 317
177 177 172 173 176 178 179 178 172 169 166 164 164 166 176 193 206 203 210 212 208 210 219 223 231 235 217 237 273 285 286 287 290 293 298 301 303 305 307 309 310 313 314
179 180 178 177 179 180 181 179 175 171 165 179 180 172 179 189 202 210 214 221 222 212 220 227 233 236 248 252 247 286 292 289 291 293 295 299 301 303 304 306 307 309 310
182 182 183 181 181 183 183 182 181 181 174 182 194 193 191 190 170 186 207 216 217 219 221 220 231 238 245 252 257 251 280 287 289 292 295 298 300 301 303 306 308 310 312
185 185 185 186 184 186 185 186 187 188 179 182 189 215 239 177 189 173 188 206 214 225 225 217 226 232 237 242 249 274 280 284 286 291 294 298 300 301 303 306 309 310 311
188 188 186 188 188 188 189 187 187 190 189 191 189 184 189 198 230 216 196 194 207 214 222 228 227 229 233 238 248 263 271 278 284 289 293 297 301 303 305 307 309 310 310
188 190 188 190 190 190 191 190 190 194 195 197 196 194 193 194 200 210 222 211 214 199 207 219 226 227 230 238 242 266 267 274 282 289 295 300 304 307 308 308 310 311 311
188 191 189 192 192 193 192 190 191 196 199 200 202 204 207 214 203 210 226 226 228 210 204 212 214 219 223 237 238 248 256 273 285 291 299 305 307 308 309 309 311 310 311
190 189 191 194 194 192 191 192 193 197 201 203 207 208 209 211 206 207 214 220 230 227 218 210 187 206 213 228 255 243 261 274 288 293 302 308 310 310 311 311 312 312 314
188 189 191 193 195 193 192 191 197 197 200 205 206 208 210 209 209 212 215 219 228 242 236 205 190 173 192 228 272 262 274 298 291 297 306 312 313 314 314 313 314 315 316
187 188 191 193 194 193 193 194 197 199 200 204 204 206 209 207 205 207 211 216 226 240 249 220 197 158 158 233 298 283 290 308 299 307 312 317 317 317 318 318 318 318 317
189 189 190 191 192 194 193 194 198 196 201 201 200 206 208 205 202 203 204 208 214 219 239 241 209 186 224 245 280 301 307 306 307 317 316 317 320 321 320 321 321 320 320
191 189 188 191 192 193 194 196 198 197 199 201 200 201 206 201 204 202 201 206 209 211 223 237 223 214 235 257 297 304 313 309 305 326 319 319 323 326 327 328 326 325 325
191 189 188 191 193 193 194 197 198 197 199 200 198 199 201 199 203 201 201 202 203 203 214 224 228 213 214 233 287 291 298 308 315 319 316 319 323 324 326 329 330 330 330
189 188 189 192 192 192 193 194 194 196 196 197 197 197 198 198 201 196 196 198 192 190 194 200 206 210 210 244 284 295 294 304 313 322 320 319 321 317 327 332 333 334 335
188 186 188 190 190 190 192 191 189 190 190 190 191 195 196 194 192 187 185 186 180 179 177 187 194 193 204 216 260 287 298 312 317 332 319 318 319 317 325 328 331 334 333
185 183 187 188 189 189 182 181 183 185 186 185 183 183 179 176 170 164 161 159 163 172 179 181 187 199 215 228 266 299 313 314 304 359 320 312 318 314 325 328 334 329 330
183 184 185 187 189 187 176 175 175 180 181 181 178 175 169 167 165 160 146 136 131 124 146 170 174 192 191 195 179 260 303 308 314 347 322 303 321 315 324 320 322 324 329
183 184 184 185 186 182 172 171 166 173 173 175 176 174 170 168 165 158 149 140 129 116 123 128 135 123 102 105 105 63 335 327 334 345 336 300 318 319 320 308 314 322 326
182 181 181 181 181 175 167 164 161 167 162 164 166 168 167 163 155 149 145 137 127 110 91 95 92 91 89 84 80 86 58 350 320 340 360 316 319 321 310 300 314 319 320
175 171 173 176 175 172 165 162 161 162 157 154 151 155 159 156 153 151 152 148 144 140 129 117 104 96 91 85 68 54 51 6 345 324 17 333 324 332 313 308 317 317 318